Date,TemperatureHighF,TemperatureAvgF,TemperatureLowF,DewpointHighF,DewpointAvgF,DewpointLowF,HumidityHigh,HumidityAvg,HumidityLow,PressureMaxIn,PressureMinIn,WindSpeedMaxMPH,WindSpeedAvgMPH,GustSpeedMaxMPH,PrecipitationSumIn
2013-1-1,50.9,49.6,46.4,50.6,42.5,28.9,99,79,45,30.45,30.28,9,3,9,0.24
2013-1-2,49.8,47.6,44.4,49.6,45.1,40.7,99,91,76,30.50,30.21,10,2,10,0.15
2013-1-3,45.1,41.7,30.9,41.9,39.0,29.5,97,90,80,30.61,30.43,6,2,6,0.00
2013-1-4,52.5,39.1,27.9,38.4,26.4,17.7,98,64,33,30.67,30.54,12,2,12,0.01
2013-1-5,52.2,40.5,26.6,35.1,24.9,17.8,84,56,29,30.73,30.56,8,2,8,0.00
2013-1-6,54.1,45.6,40.6,41.2,37.7,32.5,93,74,60,30.56,30.39,10,2,10,0.00
2013-1-7,53.2,41.6,34.3,32.5,29.1,26.1,77,62,40,30.75,30.52,11,3,11,0.00
2013-1-8,57.0,47.9,30.7,42.2,38.8,27.6,89,71,53,30.78,30.63,4,1,4,0.00
2013-1-9,70.0,55.8,39.4,50.9,46.5,36.7,91,72,48,30.79,30.69,6,2,6,0.00
2013-1-10,70.3,58.4,50.2,55.0,48.6,43.1,97,72,45,30.84,30.71,8,2,8,0.00
2013-1-11,52.9,50.3,47.1,50.8,49.7,46.9,99,98,84,30.71,30.50,8,2,8,0.01
2013-1-12,75.7,62.1,49.8,66.7,57.6,49.6,99,87,60,30.51,30.44,11,2,11,0.01
2013-1-13,75.7,66.3,59.4,61.6,59.7,57.9,99,81,60,30.49,30.41,12,4,12,0.00
2013-1-14,71.4,65.8,63.0,64.4,61.5,57.6,97,86,77,30.48,30.41,11,3,11,0.00
2013-1-15,66.9,51.4,44.8,62.0,50.5,44.0,99,97,83,30.53,30.40,8,3,8,0.05
2013-1-16,50.5,46.4,43.2,50.3,45.9,42.6,99,98,97,30.39,30.31,8,2,8,0.17
2013-1-17,51.6,46.3,34.2,51.4,45.9,33.4,99,98,94,30.51,30.11,24,5,24,1.84
2013-1-18,50.0,38.8,31.8,34.9,28.1,18.4,98,69,33,30.86,30.51,14,3,14,0.00
2013-1-19,57.4,42.3,26.8,31.9,25.8,19.7,83,56,25,30.81,30.49,8,3,8,0.00
2013-1-20,65.1,51.2,37.4,36.3,30.2,25.8,73,46,26,30.49,30.35,17,4,17,0.00
2013-1-21,61.9,47.2,32.2,35.3,26.2,10.5,83,48,23,30.42,30.25,15,4,15,0.00
2013-1-22,45.5,37.7,28.0,16.4,6.4,-5.1,51,27,19,30.59,30.32,14,4,14,0.00
2013-1-23,46.6,34.4,21.9,29.0,12.4,-0.6,64,42,21,30.68,30.38,10,3,10,0.00
2013-1-24,50.7,38.5,24.6,35.5,16.4,-4.9,80,44,20,30.82,30.29,17,5,17,0.00
2013-1-25,27.0,24.5,20.3,22.8,12.9,1.4,87,63,36,30.82,30.43,7,2,7,0.00
2013-1-26,45.9,31.8,23.7,36.0,28.0,21.0,96,86,66,30.69,30.40,6,1,6,0.01
2013-1-27,45.0,36.5,27.1,30.0,26.8,21.1,97,69,50,30.90,30.68,10,2,10,0.00
2013-1-28,51.3,42.6,32.4,49.3,36.1,25.8,93,78,59,30.80,30.58,9,3,9,0.01
2013-1-29,74.3,60.3,45.9,59.8,53.2,45.1,98,79,55,30.59,30.40,13,4,13,0.00
2013-1-30,74.8,66.6,63.9,64.9,62.4,59.3,96,87,62,30.41,30.03,24,8,24,0.00
2013-1-31,51.1,44.1,37.9,47.3,25.1,12.4,87,50,25,30.38,29.92,18,7,18,0.02
2013-2-1,42.6,37.6,24.8,27.7,12.3,0.8,56,37,22,30.57,29.92,20,7,20,0.00
2013-2-2,48.2,35.8,21.0,36.8,15.2,2.4,86,47,23,30.35,29.49,17,4,17,0.00
2013-2-3,55.6,43.7,31.5,37.2,28.6,16.8,92,60,25,30.13,29.95,19,5,19,0.00
2013-2-4,50.9,40.3,26.2,29.3,24.7,18.0,76,55,35,30.24,30.09,10,3,10,0.00
2013-2-5,65.8,50.7,38.7,45.4,36.2,28.5,91,59,37,30.80,29.98,17,4,17,0.00
2013-2-6,65.7,50.4,36.1,47.2,32.8,22.5,99,59,20,30.34,30.08,10,2,10,0.00
2013-2-7,45.5,42.4,39.6,41.7,36.6,27.3,99,82,51,30.38,30.05,14,4,14,0.40
2013-2-8,60.8,47.3,37.9,48.6,39.8,29.4,99,78,49,30.19,29.95,16,5,16,0.12
2013-2-9,58.6,44.8,32.4,30.7,24.0,16.8,76,48,23,30.49,30.19,11,3,11,0.00
2013-2-10,57.6,45.3,32.2,48.8,29.5,18.6,99,58,25,30.55,30.29,12,3,12,0.08
2013-2-11,59.7,57.8,49.3,59.5,57.6,49.0,99,99,99,30.30,30.13,13,9,13,0.08
2013-2-12,59.7,59.7,59.7,59.5,59.5,59.5,99,99,99,30.14,30.14,12,12,12,0.08
2013-2-13,59.7,49.9,30.2,59.5,48.1,11.0,99,93,44,30.49,29.82,14,6,14,0.10
2013-2-14,54.0,42.4,30.7,40.8,33.6,28.5,97,74,44,30.25,30.05,10,2,10,0.00
2013-2-15,63.3,49.4,32.2,43.6,33.5,25.4,99,60,25,30.27,30.12,12,3,12,0.00
2013-2-16,49.5,49.5,49.5,38.6,38.6,38.6,66,66,66,30.13,30.13,2,2,9,0.00
2013-2-17,49.5,49.5,49.5,38.6,38.6,38.6,66,66,66,30.13,30.13,2,2,9,0.00
2013-2-18,49.5,49.5,49.5,38.6,38.6,38.6,66,66,66,30.13,30.13,2,2,9,0.00
2013-2-19,49.5,49.5,49.5,38.6,38.6,38.6,66,66,66,30.13,30.13,2,2,9,0.00
2013-2-20,49.5,49.5,49.5,38.6,38.6,38.6,66,66,66,30.13,30.13,2,2,9,0.00
2013-2-21,49.5,49.5,49.5,38.6,38.6,38.6,66,66,66,30.13,30.13,2,2,9,0.00
2013-2-22,49.5,45.3,36.0,38.6,37.8,35.2,99,76,66,30.13,29.40,8,2,9,0.78
2013-2-23,43.0,39.7,36.0,42.5,39.2,35.2,99,98,97,29.85,29.58,7,2,7,0.57
2013-2-24,65.1,51.3,42.6,47.8,37.2,21.0,99,66,19,29.77,29.55,14,3,14,0.00
2013-2-25,46.2,41.0,38.3,28.8,27.0,25.3,67,57,45,29.92,29.75,11,4,11,0.00
2013-2-26,38.8,38.0,37.9,28.0,27.8,26.4,67,66,61,29.80,29.74,11,9,11,0.00
2013-2-27,140.0,96.0,48.2,99.9,68.4,34.1,77,59,53,29.93,29.88,8,3,8,0.90
2013-2-28,51.8,43.7,35.4,36.6,29.4,22.9,89,59,34,30.07,29.89,14,4,14,0.00
2013-3-1,50.2,40.9,31.3,34.6,28.6,24.0,79,62,45,30.11,30.03,12,3,12,0.00
2013-3-2,46.2,38.8,31.6,36.9,32.0,22.5,96,77,62,30.12,30.01,11,2,11,0.12
2013-3-3,46.6,36.0,26.1,24.0,18.1,13.0,75,50,27,30.19,30.06,14,3,14,0.00
2013-3-4,54.7,39.7,25.2,28.2,15.7,7.1,65,41,19,30.32,30.17,15,3,15,0.00
2013-3-5,57.6,47.3,37.6,49.7,38.2,23.8,99,72,47,30.24,29.77,14,3,14,0.35
2013-3-6,50.0,42.7,35.6,47.0,26.5,18.2,99,54,34,30.29,29.77,28,9,28,0.01
2013-3-7,55.0,42.0,29.3,29.9,25.9,21.9,81,55,31,30.44,30.27,14,4,14,0.00
2013-3-8,57.0,43.8,31.5,27.4,22.4,16.6,66,45,22,30.50,30.38,16,5,16,0.00
2013-3-9,63.1,48.9,35.1,36.0,29.6,24.0,69,49,28,30.53,30.42,10,3,10,0.00
2013-3-10,67.8,52.6,36.3,41.1,35.8,31.7,89,57,30,30.49,30.37,11,2,11,0.00
2013-3-11,70.5,55.5,40.6,56.2,43.4,27.2,95,64,46,30.40,30.06,16,4,16,0.02
2013-3-12,71.1,62.9,56.8,62.6,54.5,35.5,99,79,32,30.07,29.94,14,6,14,0.70
2013-3-13,58.5,47.9,39.4,35.1,19.5,15.7,58,33,24,30.08,29.67,17,7,17,0.70
2013-3-14,54.1,39.8,30.4,28.0,17.5,10.7,58,41,20,30.19,30.07,14,4,14,0.00
2013-3-15,65.8,49.2,28.6,42.2,28.7,17.1,84,48,26,30.14,29.84,14,4,14,0.00
2013-3-16,79.3,67.4,58.1,47.9,43.4,38.6,60,44,28,29.84,29.68,21,8,21,0.00
2013-3-17,77.9,61.7,47.5,55.9,45.8,39.3,81,58,37,30.05,29.81,14,4,14,0.00
2013-3-18,47.5,42.2,39.6,42.8,41.1,39.3,99,96,80,30.08,29.84,17,4,17,0.52
2013-3-19,67.3,52.8,41.2,49.1,31.7,14.2,99,58,14,30.02,29.81,122,5,122,0.01
2013-3-20,57.6,49.4,42.6,30.0,14.3,5.7,59,25,18,30.09,29.75,11,3,11,0.00
2013-3-21,48.0,40.7,32.7,29.3,11.6,4.0,64,32,19,29.95,29.75,21,6,21,0.00
2013-3-22,53.2,39.6,24.4,25.9,15.1,8.9,68,39,22,30.06,29.94,11,3,11,0.00
2013-3-23,51.1,43.9,38.8,45.5,38.0,25.9,99,81,45,30.03,29.88,6,1,6,0.02
2013-3-24,42.6,40.5,37.9,42.4,40.2,37.7,99,99,98,29.89,29.53,14,4,14,0.80
2013-3-25,49.5,42.3,37.9,40.7,29.5,13.2,99,67,28,29.85,29.51,23,6,23,0.05
2013-3-26,49.6,40.5,30.4,28.0,24.8,21.7,77,54,37,30.14,29.85,16,5,16,0.00
2013-3-27,52.9,43.0,32.9,29.3,22.4,14.9,68,46,25,30.23,30.11,14,5,14,0.00
2013-3-28,57.4,44.7,34.0,27.3,20.4,14.3,63,40,21,30.27,30.17,15,4,15,0.00
2013-3-29,62.2,49.2,31.3,37.5,25.5,19.3,79,45,21,30.32,30.16,13,3,13,0.00
2013-3-30,66.6,55.5,46.2,50.3,45.3,36.9,99,72,43,30.20,30.06,11,2,11,0.22
2013-3-31,71.2,59.7,49.5,58.0,52.8,47.1,99,80,53,30.06,29.81,17,5,17,0.26
2013-4-1,74.1,64.5,56.7,58.1,44.7,30.2,99,56,21,29.95,29.82,16,4,16,0.02
2013-4-2,65.1,54.5,41.0,40.7,34.3,22.1,87,50,22,30.15,29.95,11,3,11,0.00
2013-4-3,62.8,54.0,45.3,33.9,20.8,12.1,53,28,20,30.25,30.10,14,4,14,0.00
2013-4-4,49.6,42.4,37.4,39.7,33.9,21.6,99,76,37,30.26,29.92,16,5,16,0.93
2013-4-5,66.4,49.6,37.2,48.5,41.4,36.3,99,77,44,30.02,29.86,10,3,10,0.01
2013-4-6,68.9,56.4,38.8,43.2,37.7,31.5,95,53,28,30.21,30.02,12,3,12,0.00
2013-4-7,72.7,60.2,41.0,50.0,43.6,35.1,90,56,34,30.26,30.10,11,4,11,0.00
2013-4-8,70.9,70.3,43.2,54.5,50.1,42.6,98,49,47,30.10,29.77,6,3,8,2.78
2013-4-9,84.4,71.5,57.6,60.6,57.8,54.5,96,65,43,30.02,29.92,12,4,12,0.00
2013-4-10,85.8,73.8,61.7,62.6,60.3,57.2,96,65,42,29.95,29.81,12,5,12,0.00
2013-4-11,81.7,71.6,62.1,68.4,63.1,58.2,98,76,51,30.48,29.60,15,6,16,0.00
2013-4-12,81.3,71.8,61.5,68.8,58.9,16.2,99,69,25,29.65,29.47,18,7,18,0.17
2013-4-13,75.9,63.1,48.2,48.9,42.2,34.1,86,50,24,29.85,29.65,10,2,10,0.00
2013-4-14,77.4,62.7,45.0,54.4,46.1,39.1,97,59,28,29.90,29.81,10,3,10,0.00
2013-4-15,72.9,66.0,59.4,62.0,59.1,54.2,97,79,65,30.01,29.80,8,2,8,0.00
2013-4-16,77.4,67.2,58.5,64.2,60.9,58.2,99,82,55,30.11,30.01,7,1,7,0.00
2013-4-17,85.1,71.0,57.0,67.7,61.7,56.8,99,76,43,30.07,27.76,11,2,11,0.00
2013-4-18,80.2,71.0,62.6,65.7,62.3,58.6,97,76,50,30.00,29.83,12,4,12,0.00
2013-4-19,81.3,69.1,55.9,69.7,65.0,53.1,99,88,62,29.84,29.58,20,7,20,0.19
2013-4-20,66.7,54.4,45.3,53.5,37.4,25.4,95,57,24,30.06,29.71,11,2,11,0.00
2013-4-21,63.9,52.8,41.5,43.7,40.8,36.6,97,66,43,30.24,30.06,11,3,11,0.00
2013-4-22,64.4,52.8,41.0,42.4,33.9,22.4,87,54,22,30.21,30.02,13,4,13,0.00
2013-4-23,66.6,56.5,50.5,55.2,49.2,41.6,98,77,65,30.06,29.92,11,3,11,0.00
2013-4-24,76.3,64.1,51.1,59.5,55.6,50.8,99,76,50,29.95,29.82,11,4,11,0.00
2013-4-25,73.2,61.7,50.4,60.2,46.5,26.2,93,61,21,30.08,29.85,11,3,11,0.00
2013-4-26,72.1,60.0,44.6,51.6,38.5,29.9,83,48,24,30.23,30.08,10,2,10,0.00
2013-4-27,67.1,58.8,53.8,59.0,53.6,48.5,99,84,57,30.17,30.05,4,1,4,0.05
2013-4-28,60.4,56.5,54.5,60.2,56.1,53.7,99,99,97,30.06,29.85,10,2,10,1.46
2013-4-29,69.6,60.4,56.8,65.6,59.4,8.9,99,97,14,29.85,29.79,4,1,4,0.18
2013-4-30,72.3,64.5,57.7,64.1,61.2,57.4,99,89,68,29.98,29.79,8,3,8,0.00
2013-5-1,65.3,59.4,54.0,59.4,57.1,53.1,99,92,80,30.08,29.97,14,4,14,0.00
2013-5-2,62.8,58.8,56.7,60.1,58.0,56.4,99,97,88,30.10,30.01,9,4,9,0.12
2013-5-3,69.8,61.0,54.0,58.1,54.2,45.6,98,80,56,30.02,29.91,13,4,13,0.00
2013-5-4,63.7,56.2,49.1,54.2,49.4,42.7,96,78,63,29.94,29.79,14,5,14,0.00
2013-5-5,59.5,55.1,52.0,59.3,53.6,49.7,99,95,85,29.82,29.66,15,5,15,0.31
2013-5-6,71.4,62.9,56.3,63.2,56.4,48.1,99,82,47,29.70,29.60,13,4,13,0.66
2013-5-7,69.1,58.4,46.9,55.0,51.2,46.7,99,79,53,29.76,29.65,12,2,12,0.00
2013-5-8,75.4,63.5,51.4,61.9,56.5,51.0,99,80,51,29.83,29.72,10,2,10,0.01
2013-5-9,83.1,68.2,53.2,63.6,57.3,52.7,99,73,38,29.90,29.80,9,2,9,0.00
2013-5-10,61.9,60.0,59.9,59.5,58.8,58.7,96,96,92,29.89,29.88,0,0,0,0.00
2013-5-11,59.9,59.9,59.9,58.8,58.8,58.8,96,96,96,29.88,29.88,0,0,0,0.00
2013-5-12,74.8,63.9,56.5,63.4,46.2,36.7,98,56,36,30.04,29.83,5,2,5,0.02
2013-5-13,72.0,58.2,46.9,42.7,36.8,27.4,79,48,20,30.16,30.03,10,2,10,0.00
2013-5-14,73.9,59.3,42.8,46.6,41.3,34.6,91,55,28,30.24,30.07,9,3,9,0.00
2013-5-15,88.5,73.6,55.2,63.1,56.8,46.1,85,57,39,30.08,29.94,9,4,9,0.00
2013-5-16,85.5,75.3,65.7,65.0,60.5,54.4,88,62,36,30.03,29.93,9,2,9,0.00
2013-5-17,86.0,74.4,62.4,67.5,63.5,59.7,97,71,44,30.08,30.00,8,2,8,0.00
2013-5-18,79.2,70.2,64.4,69.3,65.4,61.4,99,86,62,30.14,30.07,7,1,7,0.00
2013-5-19,74.7,68.0,65.1,70.7,67.3,64.7,99,98,87,30.13,30.04,9,2,9,0.73
2013-5-20,84.2,72.3,66.6,71.9,68.6,16.2,99,89,14,30.11,30.01,6,1,6,0.22
2013-5-21,68.0,67.1,64.6,67.7,66.8,64.3,99,99,99,30.05,30.00,4,1,4,0.00
2013-5-22,83.1,73.9,69.3,69.2,66.0,62.8,92,77,58,29.93,29.85,7,3,7,0.90
2013-5-23,82.6,70.5,64.8,70.9,66.4,16.2,99,88,15,29.92,29.78,7,2,7,0.20
2013-5-24,73.9,66.5,53.8,64.9,51.8,32.9,99,65,23,30.14,29.81,17,3,17,0.02
2013-5-25,79.3,63.3,45.1,49.7,43.8,36.6,97,55,26,30.25,30.10,9,2,9,0.00
2013-5-26,73.6,73.6,73.6,47.1,47.1,47.1,39,39,39,30.10,30.10,3,3,3,0.00
2013-5-27,73.6,73.6,73.6,47.1,47.1,47.1,39,39,39,30.10,30.10,3,3,3,0.00
2013-5-28,83.5,77.0,64.0,66.8,64.9,62.6,97,67,54,29.95,29.85,10,3,10,0.00
2013-5-29,84.7,74.8,62.1,66.7,63.7,60.6,96,70,48,29.96,29.86,8,3,8,0.00
2013-5-30,85.5,74.3,61.5,67.5,63.9,58.6,98,73,46,29.99,29.87,8,2,8,0.00
2013-5-31,88.0,75.7,63.5,70.3,67.0,62.7,99,76,48,29.94,29.81,8,2,8,0.00
2013-6-1,86.9,76.6,68.0,70.1,67.4,62.6,99,75,47,29.84,29.73,11,3,11,0.00
2013-6-2,85.8,75.6,67.3,72.9,68.1,63.8,99,79,50,29.77,29.59,10,4,10,1.31
2013-6-3,85.6,73.8,67.1,73.0,69.4,15.4,99,87,57,29.67,29.55,7,2,7,0.40
2013-6-4,83.8,74.2,65.8,70.9,68.0,65.6,99,82,63,29.77,29.64,9,2,9,0.00
2013-6-5,70.0,68.9,68.4,67.6,67.2,66.2,96,94,89,29.78,29.74,4,2,4,0.00
2013-6-6,75.9,71.2,68.7,74.3,70.4,68.5,99,97,91,29.76,29.65,11,2,11,0.71
2013-6-7,82.2,71.5,67.3,74.3,69.6,66.5,99,94,72,29.68,29.44,12,3,12,0.86
2013-6-8,84.4,74.0,67.1,72.2,69.1,66.8,99,86,59,29.93,29.66,7,2,7,0.02
2013-6-9,86.2,73.9,65.7,72.7,69.6,65.4,99,88,59,29.98,29.89,17,1,17,0.00
2013-6-10,83.8,73.6,68.9,76.2,71.7,23.4,99,94,15,29.92,29.74,20,4,20,1.07
2013-6-11,90.9,77.1,68.7,72.5,67.9,62.2,99,77,42,29.82,29.76,10,3,10,0.00
2013-6-12,92.1,79.0,64.8,76.3,70.5,64.5,99,77,53,29.84,29.72,8,2,8,0.00
2013-6-13,92.7,83.5,73.4,75.1,72.5,65.2,96,72,46,29.73,29.51,23,4,23,0.07
2013-6-14,83.5,75.8,63.3,68.8,59.3,55.1,94,59,41,29.85,29.60,12,3,12,0.00
2013-6-15,86.0,73.2,58.8,66.8,61.8,57.9,98,71,46,29.96,29.85,9,2,9,0.00
2013-6-16,87.3,75.8,66.2,70.6,66.6,62.4,92,74,51,29.98,29.85,10,4,10,0.00
2013-6-17,86.2,75.6,70.3,73.7,69.5,66.2,98,82,63,29.88,29.77,11,3,11,0.00
2013-6-18,85.1,75.8,70.3,74.1,71.2,69.5,98,87,64,29.82,29.62,11,4,11,0.02
2013-6-19,84.4,75.2,69.1,70.9,67.9,62.1,99,80,52,29.94,29.72,8,2,8,0.00
2013-6-20,84.6,74.2,65.5,68.5,66.2,63.5,99,78,51,30.06,29.93,10,2,10,0.00
2013-6-21,84.4,73.8,63.1,66.0,62.9,59.8,94,71,48,30.09,28.53,11,2,11,0.00
2013-6-22,85.3,74.3,66.0,72.2,67.5,59.9,95,80,61,30.06,29.95,11,2,11,0.00
2013-6-23,84.6,74.7,67.8,76.5,72.0,67.6,99,92,66,30.04,29.96,7,1,7,0.70
2013-6-24,85.5,75.3,71.8,75.5,72.4,69.0,99,91,66,29.99,29.81,8,2,8,0.70
2013-6-25,90.0,78.5,71.1,74.4,71.6,69.1,98,81,51,29.84,29.72,12,3,12,0.00
2013-6-26,90.0,78.2,70.2,74.8,71.6,67.8,98,82,55,29.75,29.62,8,3,8,0.07
2013-6-27,88.5,77.6,69.6,78.8,73.3,15.1,99,88,12,29.66,29.44,14,3,14,0.74
2013-6-28,88.0,79.6,70.0,76.2,72.6,69.2,99,81,57,30.02,29.40,15,3,15,0.47
2013-6-29,85.3,76.9,69.6,74.4,71.3,68.2,99,84,61,30.02,29.91,10,2,10,0.01
2013-6-30,83.3,75.1,66.7,75.1,72.1,66.5,99,91,70,30.14,29.99,9,2,9,0.48
2013-7-1,80.4,73.1,66.9,73.6,70.5,66.7,99,92,77,30.28,30.11,9,2,9,0.11
2013-7-2,79.0,73.0,70.9,74.1,71.5,70.2,99,95,81,30.44,30.27,14,4,14,0.20
2013-7-3,81.5,75.2,72.1,75.8,73.2,71.3,99,94,78,30.50,30.41,8,2,8,0.01
2013-7-4,85.8,78.5,74.8,75.2,73.6,71.7,94,85,65,30.52,30.46,11,4,11,0.17
2013-7-5,85.1,78.0,72.5,75.2,73.2,71.6,99,86,66,30.54,30.47,10,3,10,0.04
2013-7-6,84.4,75.5,69.6,76.8,72.8,69.2,99,92,72,30.53,30.41,14,2,14,0.02
2013-7-7,87.8,77.5,71.2,77.7,73.4,70.7,99,88,66,30.48,30.37,11,2,11,0.38
2013-7-8,87.4,77.9,71.4,76.9,73.5,70.7,99,87,62,30.48,30.40,6,2,6,0.05
2013-7-9,74.8,74.3,73.9,74.3,73.7,73.4,99,98,98,30.45,30.43,0,0,0,0.00
2013-7-10,74.3,74.3,74.3,73.7,73.7,73.7,98,98,98,30.44,30.44,0,0,0,0.00
2013-7-13,76.8,74.8,73.6,75.7,74.2,70.6,99,98,84,29.95,29.51,8,2,8,0.05
2013-7-14,87.4,77.6,72.5,75.7,72.7,71.1,99,86,63,30.14,29.95,14,3,14,0.12
2013-7-15,90.0,78.8,70.9,75.3,72.6,69.1,99,83,55,30.18,30.10,8,1,8,0.00
2013-7-16,88.9,80.0,69.8,75.5,72.5,69.2,98,80,55,30.16,29.76,6,0,6,0.15
2013-7-17,90.7,78.1,71.8,78.6,74.0,69.8,99,88,65,29.94,29.83,10,1,10,0.44
2013-7-18,91.4,80.3,70.5,78.0,74.1,69.8,99,83,58,29.88,29.77,6,1,6,0.00
2013-7-19,88.9,80.1,74.8,76.5,75.2,73.2,98,86,63,29.82,29.77,7,2,7,0.00
2013-7-20,86.2,78.8,74.7,76.2,74.3,72.6,97,87,68,29.75,29.64,6,3,6,0.00
2013-7-21,90.1,78.1,70.9,75.9,73.0,70.3,99,86,59,29.73,29.62,7,2,7,0.86
2013-7-22,86.9,80.3,70.9,76.0,73.7,70.3,98,81,65,29.68,29.55,8,3,8,0.01
2013-7-23,90.9,80.9,73.6,74.4,72.4,68.5,97,77,50,29.57,29.47,9,3,9,0.00
2013-7-24,91.8,79.2,70.0,75.3,71.9,69.0,99,81,49,29.57,29.45,8,2,8,0.17
2013-7-25,84.9,75.2,69.4,72.2,69.8,66.6,99,85,61,29.73,29.51,9,2,9,0.01
2013-7-26,86.0,75.5,66.9,71.6,69.0,66.7,99,82,56,29.81,29.72,7,1,7,0.00
2013-7-27,81.0,72.6,69.1,74.5,71.0,68.8,99,95,76,29.75,29.63,14,2,14,0.97
2013-7-28,87.4,77.4,70.3,74.3,71.6,69.4,98,84,57,29.70,29.62,8,2,8,0.01
2013-7-29,86.9,77.3,70.5,74.3,70.3,67.0,98,81,55,29.86,29.70,8,2,8,0.00
2013-7-30,86.2,75.6,67.1,71.7,67.9,63.3,99,79,53,29.92,29.84,6,1,6,0.00
2013-7-31,83.7,75.2,71.2,74.4,71.3,69.5,97,88,67,29.86,29.70,9,2,9,0.17
2013-8-1,85.5,75.9,70.5,75.9,72.6,70.0,98,90,64,31.32,29.58,8,1,8,0.00
2013-8-2,88.7,77.6,68.4,75.2,71.3,68.1,99,83,56,29.74,29.62,8,1,8,0.00
2013-8-3,90.0,80.3,73.8,77.3,73.3,69.2,99,81,52,29.73,29.64,7,2,7,0.00
2013-8-4,86.5,77.7,69.8,72.4,68.8,64.0,97,77,48,29.73,29.62,12,2,12,0.00
2013-8-5,85.1,75.8,68.4,71.1,67.6,64.0,96,77,52,29.78,29.69,8,2,8,0.00
2013-8-6,75.2,71.0,68.0,71.1,68.2,63.6,99,91,74,29.78,29.68,9,2,9,0.31
2013-8-7,84.2,76.0,70.0,73.9,70.7,66.5,98,85,57,29.80,29.72,9,2,9,0.00
2013-8-8,85.8,76.9,71.8,77.1,73.5,69.9,98,90,69,29.79,29.71,7,1,7,0.13
2013-8-9,88.5,79.8,73.4,77.1,74.6,71.5,99,85,66,29.81,29.72,11,3,11,0.14
2013-8-10,91.0,79.8,73.4,78.1,74.3,70.3,99,85,57,29.82,29.74,11,2,11,0.01
2013-8-11,91.8,80.6,71.1,75.9,73.2,70.5,99,80,54,29.83,29.74,7,2,7,0.00
2013-8-12,92.1,81.2,72.1,77.2,73.2,70.2,98,79,52,29.77,29.66,7,1,7,0.00
2013-8-13,90.3,79.7,72.1,77.4,73.3,69.9,99,82,57,29.68,29.50,10,3,10,0.26
2013-8-14,77.5,72.9,65.3,73.5,66.2,60.3,99,81,58,29.78,29.56,12,2,12,0.01
2013-8-15,76.6,67.9,61.2,63.3,60.1,55.9,95,78,52,29.85,29.76,12,2,12,0.00
2013-8-16,69.8,65.0,61.5,64.3,60.8,57.3,96,86,74,29.86,29.77,7,1,7,0.02
2013-8-17,67.6,64.4,61.5,67.1,63.6,60.6,99,97,88,29.87,29.81,9,3,9,0.52
2013-8-18,84.2,73.2,65.7,74.8,69.5,65.4,99,89,65,29.91,29.83,6,0,6,0.02
2013-8-19,77.9,71.6,68.0,73.7,70.5,67.7,99,96,83,29.88,29.80,6,1,6,0.39
2013-8-20,81.5,73.3,64.9,76.6,71.3,64.7,99,94,79,29.89,28.31,4,0,4,0.00
2013-8-21,84.0,76.0,71.6,80.8,74.0,70.2,99,94,79,29.93,29.84,10,1,10,0.78
2013-8-22,88.5,78.0,69.8,80.6,73.6,69.2,99,88,60,29.86,29.71,5,1,5,0.00
2013-8-23,89.1,79.0,69.4,76.0,72.1,68.5,99,81,55,29.77,29.67,10,1,10,0.00
2013-8-24,81.3,72.5,65.3,68.8,64.5,60.8,96,78,51,29.99,29.77,11,3,11,0.00
2013-8-25,80.1,69.9,61.0,66.0,62.0,57.5,98,78,50,30.08,29.98,10,2,10,0.00
2013-8-26,80.4,69.0,56.3,68.3,61.7,56.0,99,80,54,30.02,29.83,8,1,8,0.00
2013-8-27,88.3,74.0,69.4,74.1,67.9,65.7,94,83,48,29.92,29.83,4,0,4,0.00
2013-8-28,90.1,79.7,69.6,74.0,71.5,68.3,97,77,52,29.91,29.81,5,2,7,0.00
2013-8-29,90.7,82.7,75.7,74.2,72.6,70.4,89,73,53,29.83,29.77,9,2,9,0.00
2013-8-30,87.6,82.7,70.9,73.5,72.1,65.7,88,70,54,29.98,29.80,3,2,4,0.00
2013-8-31,87.8,76.7,67.3,76.1,71.2,66.1,97,84,59,29.93,29.83,7,2,7,0.00
2013-9-1,88.7,77.4,70.0,75.7,71.8,66.7,98,85,60,29.88,29.76,14,2,14,0.52
2013-9-2,87.8,77.0,70.3,76.0,72.7,69.1,99,88,54,29.88,29.78,6,1,6,0.05
2013-9-3,88.7,78.6,71.8,75.3,71.2,65.6,99,80,47,29.93,29.77,8,1,8,0.00
2013-9-4,85.5,76.1,65.8,70.6,65.2,60.9,91,71,48,30.05,29.92,9,2,9,0.00
2013-9-5,78.3,73.3,66.7,68.3,66.3,65.0,96,80,65,30.08,30.01,5,1,5,0.00
2013-9-6,82.4,75.8,66.6,66.5,60.8,58.1,84,61,44,29.95,29.73,10,3,10,0.07
2013-9-7,84.6,71.8,62.1,68.3,63.4,59.0,94,77,50,29.90,29.76,6,1,6,0.00
2013-9-8,87.4,76.0,65.1,69.7,65.7,62.2,96,73,44,29.77,29.69,9,1,9,0.00
2013-9-9,87.1,76.3,65.8,69.5,66.5,63.1,97,74,48,29.92,29.76,8,1,8,0.00
2013-9-10,87.8,76.2,65.1,72.6,67.5,64.3,98,77,48,30.01,29.92,8,1,8,0.00
2013-9-11,88.9,76.4,65.7,72.2,67.5,64.5,97,76,46,29.99,29.85,8,1,8,0.00
2013-9-12,90.5,78.4,69.6,72.1,68.1,65.2,92,72,47,29.85,29.62,8,2,8,0.00
2013-9-13,85.1,75.8,68.4,69.7,65.4,58.5,94,73,41,29.62,29.55,9,2,9,0.00
2013-9-14,76.3,67.0,58.5,59.0,54.5,50.6,86,65,51,29.88,29.67,11,3,11,0.00
2013-9-15,80.4,68.8,58.5,66.2,61.3,54.9,91,78,57,29.97,29.87,5,1,5,0.00
2013-9-16,85.8,79.7,66.7,71.7,63.8,57.4,95,60,39,29.93,29.81,8,2,8,0.00
2013-9-17,77.0,70.0,61.9,64.3,56.9,53.9,80,64,46,30.06,29.92,13,4,13,0.00
2013-9-18,74.1,64.2,55.6,57.4,54.7,51.5,93,73,52,30.06,29.93,11,2,11,0.00
2013-9-19,78.6,66.8,57.2,64.6,59.2,55.1,95,78,54,29.96,29.85,5,1,5,0.00
2013-9-20,84.0,72.2,61.5,69.7,64.7,59.5,95,79,54,29.85,29.69,7,1,7,0.00
2013-9-21,77.4,70.9,64.4,70.2,67.8,63.4,99,90,73,29.71,29.44,9,2,9,1.39
2013-9-22,76.8,67.1,60.6,66.8,59.2,54.1,99,78,47,30.35,29.44,14,3,14,0.51
2013-9-23,73.0,64.1,56.5,60.4,57.0,54.0,97,79,55,29.83,29.67,7,2,7,0.00
2013-9-24,70.0,63.6,56.1,61.3,58.2,55.6,99,84,67,29.92,29.81,4,2,4,0.00
2013-9-25,70.9,64.0,59.9,64.8,61.3,58.5,98,91,72,29.95,29.86,7,1,7,0.05
2013-9-26,75.2,66.3,59.4,62.7,58.0,52.0,99,77,47,30.03,29.87,10,2,10,0.01
2013-9-27,74.1,63.7,54.7,59.0,55.1,52.1,97,75,50,30.18,30.03,11,3,11,0.00
2013-9-28,86.0,62.3,53.8,65.1,54.0,51.7,97,76,48,30.24,30.08,15,3,15,1.96
2013-9-29,60.3,60.3,60.3,53.0,53.0,53.0,77,77,77,30.18,30.18,1,1,1,0.00
2013-9-30,60.3,60.3,60.3,53.0,53.0,53.0,77,77,77,30.18,30.18,1,1,1,0.00
2013-10-1,80.8,73.3,60.3,62.8,60.4,57.3,97,66,46,29.93,29.69,7,1,7,0.01
2013-10-2,80.6,64.6,57.2,64.5,60.6,56.4,99,87,74,29.95,29.69,4,1,4,0.01
2013-10-3,63.9,63.9,63.9,61.2,61.2,61.2,91,91,91,29.91,29.91,0,0,0,0.00
2013-10-4,63.9,63.9,63.9,61.2,61.2,61.2,91,91,91,29.91,29.91,0,0,0,0.00
2013-10-5,63.9,63.9,63.9,61.2,61.2,61.2,91,91,91,29.91,29.91,0,0,0,0.00
2013-10-6,63.9,63.9,63.9,61.2,61.2,61.2,91,91,91,29.91,29.91,0,0,0,0.00
2013-10-7,72.1,72.1,72.1,69.4,69.4,69.4,91,91,91,29.92,29.92,0,0,0,0.00
2013-10-8,140.0,72.0,61.2,99.9,68.9,52.1,91,90,72,29.92,29.92,2,0,2,0.11
2013-10-15,73.2,65.6,59.7,55.8,53.9,49.9,84,68,44,29.95,29.91,5,1,5,0.03
2013-10-16,73.9,64.4,55.9,62.5,58.3,53.8,93,81,61,29.94,29.82,5,1,5,0.00
2013-10-17,72.3,66.2,61.0,66.3,63.0,59.6,96,90,72,29.84,29.73,8,2,8,0.00
2013-10-18,67.5,62.5,56.5,66.3,57.7,53.8,98,85,67,29.90,29.75,9,2,9,0.00
2013-10-19,68.9,61.2,54.7,65.0,57.3,53.4,99,88,65,29.83,29.70,6,1,6,0.00
2013-10-20,64.8,54.6,47.3,53.4,46.1,40.2,98,76,44,29.96,29.77,11,2,11,0.00
2013-10-21,69.4,54.8,42.3,54.3,48.6,42.0,99,82,48,30.00,29.85,5,1,5,0.00
2013-10-22,67.5,59.6,54.0,60.0,56.2,52.3,99,89,70,29.88,29.67,6,1,6,0.00
2013-10-23,67.5,58.2,44.1,58.7,45.0,28.4,99,66,24,29.88,29.57,12,4,12,0.00
2013-10-24,61.0,48.1,35.8,44.9,36.4,29.4,92,67,39,30.02,29.88,10,2,10,0.00
2013-10-25,52.5,46.3,37.8,40.8,34.2,29.5,84,64,42,30.21,30.01,12,3,12,0.00
2013-10-26,58.6,44.4,29.7,37.6,31.2,26.5,90,63,34,30.20,29.93,8,2,8,0.00
2013-10-27,68.7,53.8,40.3,49.3,42.8,36.3,94,69,44,30.69,29.89,8,2,8,0.00
2013-10-28,66.9,51.1,46.0,58.1,49.2,45.2,98,94,71,30.06,29.96,3,0,3,0.00
2013-10-29,72.1,59.3,50.0,57.9,53.3,49.7,99,83,52,30.19,30.10,4,1,4,0.00
2013-10-30,77.2,65.0,50.0,58.1,55.9,49.5,99,75,47,30.15,30.01,9,1,9,0.00
2013-10-31,72.7,63.7,54.9,64.8,57.8,53.5,96,82,58,30.04,29.78,10,2,10,0.00
2013-11-1,70.5,65.8,59.0,66.8,62.8,57.8,98,90,80,29.79,29.54,14,5,14,0.01
2013-11-2,70.0,59.0,51.6,59.5,51.1,40.7,99,78,37,30.39,29.59,11,2,11,0.00
2013-11-3,60.8,51.8,43.2,42.4,38.2,34.4,84,62,38,30.19,29.83,11,2,11,0.00
2013-11-4,58.1,47.5,38.7,38.3,35.0,29.4,88,65,35,30.36,30.17,10,2,10,0.00
2013-11-5,58.1,45.8,38.8,46.2,37.3,31.9,81,73,63,30.38,30.27,10,3,10,0.01
2013-11-6,54.3,54.3,54.3,47.3,47.3,47.3,77,77,77,30.22,30.22,4,4,4,0.00
2013-11-7,69.3,59.5,44.4,61.3,48.8,32.9,99,70,43,29.98,29.81,14,3,14,0.00
2013-11-8,57.2,46.9,36.9,34.4,29.2,20.8,79,53,25,30.17,29.97,10,3,10,0.00
2013-11-9,59.4,46.9,30.9,38.3,31.0,24.5,89,58,29,30.22,30.04,10,2,10,0.00
2013-11-10,71.4,57.0,42.4,41.1,35.7,27.5,81,47,26,30.07,29.96,9,2,9,0.00
2013-11-11,60.4,48.3,36.9,35.9,30.3,24.3,83,52,26,30.20,29.99,8,2,8,0.00
2013-11-12,64.4,46.0,32.0,40.4,34.3,19.5,99,67,29,30.28,29.89,17,4,17,0.00
2013-11-13,45.0,34.3,26.4,24.3,18.9,12.7,81,55,28,30.39,30.27,11,3,11,0.00
2013-11-14,56.8,39.6,24.4,29.6,22.8,16.8,91,57,22,30.31,30.17,11,2,11,0.00
2013-11-15,60.4,47.8,32.7,48.9,37.9,23.8,96,69,49,30.19,30.04,7,1,7,0.00
2013-11-16,64.8,55.8,49.6,57.8,53.6,49.1,99,93,77,30.12,30.04,5,1,5,0.01
2013-11-17,71.1,60.9,52.7,66.5,58.3,52.2,99,92,66,30.06,29.78,8,2,8,0.01
2013-11-18,77.0,67.6,53.8,67.6,51.5,30.6,99,62,28,29.84,29.69,17,4,17,0.01
2013-11-19,56.3,49.3,42.8,32.6,26.4,20.8,57,42,26,30.11,29.84,15,4,15,0.00
2013-11-20,54.3,45.3,37.0,36.2,32.4,27.5,72,61,48,30.28,30.10,13,3,13,0.00
2013-11-21,73.0,45.2,44.2,47.1,37.5,34.4,76,74,64,30.30,29.59,10,4,10,0.00
2013-11-22,70.2,60.0,52.3,60.2,53.5,13.1,93,79,65,29.90,29.63,9,3,9,0.00
2013-11-23,61.9,57.1,43.0,60.0,47.0,10.2,98,74,24,30.03,29.60,11,2,11,0.00
2013-11-24,43.0,34.0,27.0,23.0,9.1,-1.6,47,35,21,30.25,29.92,12,3,12,0.00
2013-11-25,43.2,33.7,21.9,14.7,6.7,-2.0,57,33,22,30.07,29.84,9,2,9,0.00
2013-11-26,50.4,39.5,32.7,50.1,32.6,8.1,99,82,28,29.84,29.12,21,3,21,1.48
2013-11-27,46.2,40.5,29.5,45.4,33.8,15.4,98,79,49,29.70,29.04,19,5,19,0.38
2013-11-28,47.8,33.6,21.9,25.1,19.1,14.5,83,58,29,29.98,29.70,7,2,7,0.00
2013-11-29,53.8,38.7,24.6,34.0,23.8,17.6,93,60,24,30.10,29.95,9,2,9,0.00
2013-11-30,49.3,38.0,29.5,29.3,25.3,22.6,77,61,43,30.14,29.87,11,3,11,0.00
2013-12-1,60.1,44.3,30.7,41.8,34.2,25.8,90,69,41,29.87,29.54,7,2,7,0.00
2013-12-2,60.6,44.4,39.2,42.6,39.8,37.5,98,85,44,29.93,29.46,5,1,5,0.00
2013-12-3,61.9,53.2,44.1,52.7,47.0,40.2,91,80,65,30.01,29.89,9,2,9,0.00
2013-12-4,64.9,58.0,53.6,60.3,56.3,49.7,99,94,81,30.14,29.99,6,1,6,0.00
2013-12-5,66.2,63.1,59.5,65.6,62.6,59.3,99,98,95,30.17,30.08,10,3,10,0.05
2013-12-6,77.4,70.5,64.0,65.6,63.6,61.1,99,79,61,30.13,30.03,21,7,21,0.01
2013-12-7,69.8,57.7,46.2,63.9,52.0,38.1,96,81,73,30.06,29.91,17,6,17,0.13
2013-12-8,46.2,38.8,36.3,38.4,35.6,33.9,99,89,70,30.05,29.99,10,4,11,0.08
2013-12-9,46.9,41.2,36.1,46.7,40.5,35.0,99,97,95,30.02,29.79,6,2,8,0.24
2013-12-10,54.9,46.3,30.4,49.0,41.6,23.4,99,85,49,30.07,29.65,14,2,14,0.14
2013-12-11,52.2,37.4,25.0,35.3,24.9,18.7,90,64,28,30.19,30.02,9,2,9,0.01
2013-12-12,49.6,37.4,29.3,29.0,20.6,11.0,87,54,25,30.15,30.00,11,3,11,0.00
2013-12-13,53.2,38.3,23.5,33.0,23.3,15.4,79,57,29,30.11,29.99,9,2,9,0.00
2013-12-14,49.5,41.7,39.0,49.2,38.1,30.1,99,87,69,30.01,29.53,14,2,14,0.67
2013-12-15,56.1,44.8,32.0,45.8,36.4,26.1,99,75,43,29.85,29.47,13,3,13,0.02
2013-12-16,58.8,44.1,28.4,35.8,30.3,23.7,89,62,34,29.92,29.83,10,3,10,0.00
2013-12-17,64.0,51.5,39.4,36.2,32.8,30.0,70,50,31,29.87,29.68,15,6,15,0.00
2013-12-18,55.6,44.4,34.7,31.2,20.2,13.1,58,40,21,30.02,29.79,11,2,11,0.00
2013-12-19,64.2,46.8,29.7,29.8,24.2,18.1,77,45,20,30.07,29.96,11,3,11,0.00
2013-12-20,65.5,54.1,42.4,53.3,44.8,29.8,93,72,48,29.99,29.88,13,3,13,0.00
2013-12-21,73.2,62.5,49.3,65.1,57.5,49.0,99,85,64,29.90,29.77,12,4,12,0.00
2013-12-22,75.6,68.3,63.5,69.0,65.5,62.7,99,91,70,29.85,29.76,14,5,14,0.69
2013-12-23,64.6,59.4,46.8,64.3,57.7,37.8,99,94,70,29.92,29.76,14,3,14,1.46
2013-12-24,49.3,41.7,30.7,37.9,26.0,13.4,72,54,34,30.66,29.90,14,5,14,0.00
2013-12-25,41.4,31.8,23.5,22.5,12.2,2.4,66,46,24,30.28,30.12,12,3,12,0.00
2013-12-26,56.3,41.4,33.3,28.0,22.5,15.9,70,49,25,30.12,29.98,6,2,6,0.00
2013-12-27,54.5,40.8,31.1,27.1,21.0,16.5,75,47,23,30.20,30.08,6,2,6,0.00
2013-12-28,57.4,42.4,26.1,37.9,27.4,20.5,86,59,28,30.14,29.83,8,1,8,0.00
2013-12-29,53.6,46.5,41.5,49.3,44.6,30.6,99,94,49,29.84,29.52,10,3,10,1.05
2013-12-30,56.3,45.6,36.1,48.5,41.2,35.4,99,86,57,29.86,29.68,6,1,6,0.00
2013-12-31,52.0,43.8,34.7,44.8,32.3,20.6,96,68,31,30.11,29.83,9,2,9,0.00
2014-1-1,50.4,40.4,32.0,34.1,28.9,22.1,84,64,41,30.13,29.88,6,2,6,0.00
2014-1-2,50.0,44.3,37.9,46.9,40.3,26.8,99,86,61,30.16,29.39,16,3,16,0.19